Regional Weather Roundup
Issued by NWS

Home | Current Version | Previous Version | Graphics & Text | Print | Product List | Glossary On
Versions: 1 2 3 4 5 6 7 8 9 10 11 12 13 14 15 16 17 18 19 20 21 22 23 24 25 26 27 28 29 30 31 32 33 34 35 36 37 38 39 40 41 42 43 44 45 46 47 48 49 50
000
ASUS45 KBOU 100310
RWRCO

WEATHER ROUNDUP FOR COLORADO
NATIONAL WEATHER SERVICE DENVER/BOULDER CO
900 PM MDT WED JUL 09 2014

NOTE: "FAIR" INDICATES FEW OR NO CLOUDS BELOW 12000 FEET WITH NO
SIGNIFICANT WEATHER AND/OR OBSTRUCTIONS TO VISIBILITY.

COZ001>005-013-030-031-100400-
...NORTHWEST COLORADO...

CITY           SKY/WX    TMP DP  RH WIND       PRES   REMARKS
CRAIG          MOCLDY    68  43  40 VRB7      30.13R
HAYDEN         MOCLDY    70  39  32 NW7       30.16R
MEEKER         CLOUDY    64  52  64 NE8       30.17F
MOUNT WERNER   MOCLDY    61  28  29 S12       30.48S
STEAMBOAT SPGS MOCLDY    70  43  37 CALM      30.18S
WALDEN         CLOUDY    61  43  51 S14G20    30.25R
$$

COZ006>008-011-100400-
...WEST CENTRAL VALLEYS...

CITY           SKY/WX    TMP DP  RH WIND       PRES   REMARKS
GRAND JUNCTION MOCLDY    82  45  27 E20G29    30.01R
MONTROSE       MOCLDY    78  43  28 S10       30.13R
EAGLE          MOCLDY    73  39  29 SW10G16   30.20R
RIFLE          MOCLDY    76  44  32 SE16      30.12F
DELTA          MOCLDY    82  46  28 CALM      30.08S
NUCLA          LGT RAIN  68  55  64 S5        30.21S
$$

COZ017>023-064>068-100400-
...SOUTHWEST COLORADO...

CITY           SKY/WX    TMP DP  RH WIND       PRES   REMARKS
DURANGO        CLOUDY    66  51  58 E9        30.23R
CORTEZ         CLEAR     71  52  50 CALM      30.14R
PAGOSA SPRINGS MOCLDY    59  56  91 CALM      30.33R
TELLURIDE      CLOUDY    55  52  88 E3        30.41R
WOLF CREEK PAS NOT AVBL
$$

COZ009-010-012-014-032>034-037-058>063-100400-
...CENTRAL COLORADO...

CITY           SKY/WX    TMP DP  RH WIND       PRES   REMARKS
ASPEN          MOCLDY    65  40  39 CALM      30.29R
BUENA VISTA    MOCLDY    68  40  35 NE7       30.29R
COPPER MTN     MOCLDY    59  32  36 W21       30.62R
BERTHOUD PASS  TSTM      41  28  60 SE14      30.68S
COTTONWOOD PAS MOCLDY    64  32  29 W7        30.43S
GUNNISON       NOT AVBL
KREMMLING      CLOUDY    70  34  26 SE7       30.24R
LEADVILLE      MOCLDY    62  27  26 NW6       30.43R
MONARCH PASS   MOCLDY    52  36  54 SW20      30.72R
SALIDA         MOCLDY    73  39  29 S21G28    30.31R
SUNLIGHT       MOCLDY    55  41  58 W6        30.54S
WILKERSON PASS CLOUDY    50  37  62 SE9       30.59S
$$

COZ069>075-100400-
...SAN LUIS VALLEY/SANGRE DE CRISTO MOUNTAINS...

CITY           SKY/WX    TMP DP  RH WIND       PRES   REMARKS
ALAMOSA        MOCLDY    64  46  52 S12       30.27S
LA VETA PASS   MOCLDY    50  39  66 SW9G18    30.46R
SAGUACHE       NOT AVBL
$$

COZ035-036-038>040-100400-
...NORTHERN COLORADO FRONT RANGE...

CITY           SKY/WX    TMP DP  RH WIND       PRES   REMARKS
DENVER INTL AP CLOUDY    79  43  27 W17       30.03F
DMNS CITY PARK   N/A     78  41  26 W15G21    30.01F
AURORA         MOCLDY    75  48  38 SW10      30.07F
FRONT RANGE AP NOT AVBL
ERIE MUNI ARPT CLOUDY    77  41  28 W7        30.01F
BOULDER MUN AP CLOUDY    75  45  33 SW12G22   30.02S
CENTENNIAL     CLOUDY    77  42  28 W16       30.10S
BROOMFIELD     MOCLDY    77  41  27 SW20G29   30.06
FORT COLLINS   MOCLDY    75  55  50 SE10      29.99S
LONGMONT       MOCLDY    79  44  28 SW10      30.02R
$$

COZ041-046-047-076>085-087-088-100400-
...PIKES PEAK/PALMER DIVIDE AND SOUTHERN FOOTHILLS...

CITY           SKY/WX    TMP DP  RH WIND       PRES   REMARKS
COLO. SPRINGS  CLOUDY    74  44  34 NW20G26   30.13F
A. F. ACADEMY  CLOUDY    73  42  32 W20       30.16F
ELLICOTT       NOT AVBL
FALCON         CLOUDY    70  40  33 W14       30.19S
FORT CARSON    CLOUDY    77  42  27 W12       30.08F
LIMON          MOCLDY    69  45  41 N7        30.03F
MONUMENT HILL  CLOUDY    68  37  32 SW14      30.19S
TRINIDAD       PTCLDY    74  48  39 W12       30.11R
$$

COZ042>045-048>051-090-091-100400-
...NORTHEAST COLORADO...

CITY           SKY/WX    TMP DP  RH WIND       PRES   REMARKS
GREELEY ARPT   PTCLDY    73  54  49 S5        29.99S
AKRON          MOCLDY    71  52  50 S12G23    29.97F
BURLINGTON     TSTM      68  50  52 CALM      30.08R
WRAY           MOCLDY    81  47  30 SW7       29.93R
STERLING       MOCLDY    73  55  53 S5        29.93R
HOLYOKE        MOCLDY    79  61  53 SE9       29.93R
FORT MORGAN    MOCLDY    73  49  42 S8        29.98R
$$

COZ086-089-092>099-100400-
...SOUTHEAST COLORADO...

CITY           SKY/WX    TMP DP  RH WIND       PRES   REMARKS
PUEBLO         MOCLDY    83  43  24 NE18      29.97R
LA JUNTA       PTCLDY    80  52  37 S26G36    29.96R
LAMAR          CLEAR     83  48  29 SW18G29   29.91S
SPRINGFIELD      N/A     78  50  37 SW17G32   30.01S
$$



USA.gov is the U.S. government's official web portal to all federal, state and local government web resources and services.